STARLINK-37355, 69194

Orbit data source: Space-Track

STARLINK-37355, 69194 is a payload satellite owned by SpaceX/Seattle (US) in LEO that was launched on Mon, 25 May 2026 UTC via an FALCON 9 launch vehicle from the Air Force Eastern Test Range (AFETR). Payload-class satellites include a variety of spacecraft equipped with specific instruments for various scientific and technological missions. These include communications satellites like Starlink; space stations such as the ISS; scientific satellites like the Hubble; Earth observation satellites from companies like Planet Labs, Umbra, and HawkEye 360; GPS; miniature CubeSats for education and research; and military/defense satellites.

Loading next visibility...
Identifier
69194, 2026-114N
Orbit
LEO
Country
Flag of USUS
Related business
Manufacturer
SpaceX/Seattle
Mission
Operational spacecraft
Bus & Motor
STARLINK V2MO, Unknown motor
Mass
575 kg wet, ~530 kg dry
Launch date (UTC)
2026-05-25 (4 weeks ago)
Launch vehicle
FALCON 9
Launch site
Air Force Eastern Test Range (AFETR)
Object type
Payload
Rocket body
Debris
Shape & HBR
Unknown
Radar Cross Section
Large (>1 m²)

Expand to show TLE details & history
Last TLE update: 10 hours ago

TLE from 10 hours ago
0 STARLINK-37355
1 69194U 26114N   26171.41668980 -.01111236  00000-0 -71803-2 0  9990
2 69194  53.1590 185.9795 0001218  68.8151 306.3756 15.77929903  5332
Epoch: 2026-06-20T10:00Z
TLE epoch observation values (Epoch: 2026-06-20T10:00:01.998Z)
Latitude
12.09149°
Longitude
136.52306°
Altitude
335.972 km
Speed
7.71 km/s
True Right ascension
13h 00m 39s
True Declination
12° 01' 01"
Sunlit
Object was in daylight at epoch
Visualization orbit readout
Latitude
Unknown
Longitude
Unknown
Altitude
Unknown
Speed
Unknown
Apparent Right ascension
Unknown
Apparent Declination
Unknown
Sunlit
N/A
Visualization observer readout
Local Sidereal Time
07:15:30
Azimuth
Unknown
Elevation
Unknown
Doppler factor
Unknown
Orbital elements
Apogee altitude
337.386 km
Perigee altitude
335.751 km
Semi-major axis
6,714.705 km
Eccentricity
0.00012
Inclination
53.159°
RAAN
185.9795°
Arg. of periapsis
68.8151°
True anomaly
306.36436°
Mean anomaly
306.3756°
Eccentric anomaly
306.36998°
Mean motion
3.9446 °/min
Orbital period
91.26 mins
BSTAR
-0.0071803
Loading maneuver chart data...
Computing Atmospheric mass density...
Loading historical data...
Loading historical data...
Loading historical data...
Loading historical data...
Loading historical data...
Loading historical data...
Loading historical data...

Documentation

Showing up to 5 results
|